DW7103 Weather Reports


Display with metric or nautical units.
time (UTC)temp
F
wind
direction
speed
MPH
gust
MPH
rain 1hr
in
rain 24hr
in
rain mn
in
humidity
%
barometer
mb
20260503201526 80 333 2.0 0.0 0.00 0.00 0.00 41 1010.5
20260503200022 79 337 1.0 0.0 0.00 0.00 0.00 44 1010.7
20260503194522 79 337 1.0 0.0 0.00 0.00 0.00 44 1010.7
20260503193013 78 298 1.0 0.0 0.00 0.00 0.00 45 1010.8
20260503191510 77 360 1.0 0.0 0.00 0.00 0.00 47 1011.3
20260503190006 77 61 0.0 0.0 0.00 0.00 0.00 48 1011.5
20260503184602 75 65 2.0 0.0 0.00 0.00 0.00 49 1011.7
20260503183113 75 329 2.0 0.0 0.00 0.00 0.00 49 1011.8
20260503181552 75 319 1.0 0.0 0.00 0.00 0.00 52 1012.0
20260503180048 74 346 1.0 0.0 0.00 0.00 0.00 54 1012.1
20260503174543 73 355 0.0 0.0 0.00 0.00 0.00 54 1012.1
20260503173107 71 98 1.0 0.0 0.00 0.00 0.00 56 1012.2
20260503171534 70 360 1.0 0.0 0.00 0.00 0.00 58 1012.1
20260503081600 52 323 0.0 0.0 0.00 0.00 0.00 19 1013.1
20260503071550 54 323 0.0 0.0 0.00 0.00 0.00 33 1013.0
20260503054532 57 323 0.0 0.0 0.00 0.00 0.00 61 1013.0
20260503053030 58 323 0.0 0.0 0.00 0.00 0.00 62 1012.9
20260503051516 59 323 0.0 0.0 0.00 0.00 0.00 65 1012.9
20260503050013 60 323 0.0 0.0 0.00 0.00 0.00 66 1012.9
20260503044508 61 323 0.0 0.0 0.00 0.00 0.00 66 1012.7
20260503043007 63 323 0.0 0.0 0.00 0.00 0.00 64 1012.6
20260503041608 64 323 0.0 0.0 0.00 0.00 0.00 62 1012.3
20260503040059 65 323 0.0 0.0 0.00 0.00 0.00 60 1012.0
20260503034605 66 323 0.0 0.0 0.00 0.00 0.00 59 1011.7
20260503033049 67 323 0.0 0.0 0.00 0.00 0.00 55 1011.8
20260503031544 69 323 0.0 0.0 0.00 0.00 0.00 54 1011.6
20260503030050 70 323 0.0 0.0 0.00 0.00 0.00 52 1011.3
20260503024533 71 51 0.0 0.0 0.00 0.00 0.00 51 1011.3
20260503023028 72 46 0.0 0.0 0.00 0.00 0.00 51 1011.1
20260503021526 72 51 0.0 0.0 0.00 0.00 0.00 51 1011.1
20260503020020 73 67 0.0 0.0 0.00 0.00 0.00 48 1011.0
20260503014518 73 66 0.0 0.0 0.00 0.00 0.00 48 1011.1
20260503013013 73 325 1.0 0.0 0.00 0.00 0.00 47 1011.1
20260503011506 73 315 1.0 0.0 0.00 0.00 0.00 46 1011.1
20260503010002 73 337 1.0 0.0 0.00 0.00 0.00 46 1011.2
20260503004601 74 72 1.0 0.0 0.00 0.00 0.00 48 1011.4
20260503003054 75 63 1.0 0.0 0.00 0.00 0.00 48 1011.4
20260503001550 75 339 1.0 0.0 0.00 0.00 0.00 49 1011.3
20260503000045 75 57 0.0 0.0 0.00 0.00 0.00 49 1011.4
20260502234541 75 330 0.0 0.0 0.00 0.00 0.00 49 1011.4
20260502233042 75 347 1.0 0.0 0.00 0.00 0.00 48 1011.7
20260502231533 75 336 1.0 0.0 0.00 0.00 0.00 44 1012.0
20260502230027 74 42 1.0 0.0 0.00 0.00 0.00 49 1012.1
20260502224523 74 332 2.0 0.0 0.00 0.00 0.00 49 1012.2
20260502223019 75 308 2.0 0.0 0.00 0.00 0.00 47 1012.4
20260502221514 74 61 0.0 0.0 0.00 0.00 0.00 48 1012.6
20260502220011 73 42 1.0 0.0 0.00 0.00 0.00 51 1012.7
20260502214505 73 347 2.0 0.0 0.00 0.00 0.00 52 1013.0
20260502213001 72 339 2.0 0.0 0.00 0.00 0.00 52 1013.3
20260502211600 72 284 0.0 0.0 0.00 0.00 0.00 55 1013.2
20260502210101 71 46 1.0 0.0 0.00 0.00 0.00 53 1013.5
20260502204548 72 341 1.0 0.0 0.00 0.00 0.00 54 1013.5
20260502203046 71 44 1.0 0.0 0.00 0.00 0.00 55 1013.8